Location: Unspecified
(56.5167°N, 0.0000°E)
Time: 10:42:35
(UTC+02:00)

Resurs 1-4 Rocket - Pass Details

Date: 07 August 2020
Orbit: 799 x 815 km, 98.6° (Epoch: 23 September)

Event Time Altitude Azimuth Distance (km) Brightness Sun altitude
Rises 01:48:32 0° 28° (NNE) 3,338 6.3 -17.0°
Reaches altitude 10° 01:52:57 10° 63° (ENE) 2,395 4.9 -17.1°
Maximum altitude 01:54:27 11° 80° (E) 2,311 4.6 -17.1°
Drops below altitude 10° 01:55:58 10° 96° (E) 2,387 4.5 -17.1°
Enters shadow 01:58:19 - 118° (ESE) 2,786 4.6 -17.1°
